Year,Month,Day,Hour,Minute,Value (Times are PST for temperature in C)
2019,02,26,00,00,-2.70
2019,02,26,00,01,-2.70
2019,02,26,00,02,-2.70
2019,02,26,00,03,-2.60
2019,02,26,00,04,-2.50
2019,02,26,00,05,-2.50
2019,02,26,00,06,-2.40
2019,02,26,00,07,-2.40
2019,02,26,00,08,-2.40
2019,02,26,00,09,-2.40
2019,02,26,00,10,-2.50
2019,02,26,00,11,-2.50
2019,02,26,00,12,-2.60
2019,02,26,00,13,-2.70
2019,02,26,00,14,-2.70
2019,02,26,00,15,-2.80
2019,02,26,00,16,-2.90
2019,02,26,00,17,-2.90
2019,02,26,00,18,-3.00
2019,02,26,00,19,-3.00
2019,02,26,00,20,-3.00
2019,02,26,00,21,-3.00
2019,02,26,00,22,-3.00
2019,02,26,00,23,-3.10
2019,02,26,00,24,-3.10
2019,02,26,00,25,-3.10
2019,02,26,00,26,-3.10
2019,02,26,00,27,-3.10
2019,02,26,00,28,-3.10
2019,02,26,00,29,-3.20
2019,02,26,00,30,-3.20
2019,02,26,00,31,-3.20
2019,02,26,00,32,-3.20
2019,02,26,00,33,-3.20
2019,02,26,00,34,-3.20
2019,02,26,00,35,-3.20
2019,02,26,00,36,-3.20
2019,02,26,00,37,-3.30
2019,02,26,00,38,-3.30
2019,02,26,00,39,-3.30
2019,02,26,00,40,-3.30
2019,02,26,00,41,-3.30
2019,02,26,00,42,-3.30
2019,02,26,00,43,-3.30
2019,02,26,00,44,-3.30
2019,02,26,00,45,-3.30
2019,02,26,00,46,-3.30
2019,02,26,00,47,-3.30
2019,02,26,00,48,-3.30
2019,02,26,00,49,-3.30
2019,02,26,00,50,-3.30
2019,02,26,00,51,-3.30
2019,02,26,00,52,-3.30
2019,02,26,00,53,-3.30
2019,02,26,00,54,-3.30
2019,02,26,00,55,-3.30
2019,02,26,00,56,-3.30
2019,02,26,00,57,-3.40
2019,02,26,00,58,-3.30
2019,02,26,00,59,-3.30
2019,02,26,01,00,-3.30
2019,02,26,01,01,-3.30
2019,02,26,01,02,-3.40
2019,02,26,01,03,-3.40
2019,02,26,01,04,-3.40
2019,02,26,01,05,-3.40
2019,02,26,01,06,-3.40
2019,02,26,01,07,-3.40
2019,02,26,01,08,-3.50
2019,02,26,01,09,-3.50
2019,02,26,01,10,-3.50
2019,02,26,01,11,-3.50
2019,02,26,01,12,-3.50
2019,02,26,01,13,-3.50
2019,02,26,01,14,-3.50
2019,02,26,01,15,-3.50
2019,02,26,01,16,-3.50
2019,02,26,01,17,-3.50
2019,02,26,01,18,-3.60
2019,02,26,01,19,-3.60
2019,02,26,01,20,-3.60
2019,02,26,01,21,-3.60
2019,02,26,01,22,-3.60
2019,02,26,01,23,-3.70
2019,02,26,01,24,-3.70
2019,02,26,01,25,-3.70
2019,02,26,01,26,-3.70
2019,02,26,01,27,-3.70
2019,02,26,01,28,-3.70
2019,02,26,01,29,-3.70
2019,02,26,01,30,-3.70
2019,02,26,01,31,-3.70
2019,02,26,01,32,-3.70
2019,02,26,01,33,-3.80
2019,02,26,01,34,-3.70
2019,02,26,01,35,-3.70
2019,02,26,01,36,-3.70
2019,02,26,01,37,-3.70
2019,02,26,01,38,-3.70
2019,02,26,01,39,-3.70
2019,02,26,01,40,-3.80
2019,02,26,01,41,-3.80
2019,02,26,01,42,-3.80
2019,02,26,01,43,-3.80
2019,02,26,01,44,-3.80
2019,02,26,01,45,-3.80
2019,02,26,01,46,-3.80
2019,02,26,01,47,-3.80
2019,02,26,01,48,-3.80
2019,02,26,01,49,-3.80
2019,02,26,01,50,-3.80
2019,02,26,01,51,-3.90
2019,02,26,01,52,-3.90
2019,02,26,01,53,-3.90
2019,02,26,01,54,-3.90
2019,02,26,01,55,-3.90
2019,02,26,01,56,-3.90
2019,02,26,01,57,-3.90
2019,02,26,01,58,-3.90
2019,02,26,01,59,-3.90
2019,02,26,02,00,-3.90
2019,02,26,02,01,-3.90
2019,02,26,02,02,-3.90
2019,02,26,02,03,-3.90
2019,02,26,02,04,-3.90
2019,02,26,02,05,-3.90
2019,02,26,02,06,-3.90
2019,02,26,02,07,-4.00
2019,02,26,02,08,-4.00
2019,02,26,02,09,-4.00
2019,02,26,02,10,-4.00
2019,02,26,02,11,-4.00
2019,02,26,02,12,-4.00
2019,02,26,02,13,-4.00
2019,02,26,02,14,-4.10
2019,02,26,02,15,-4.10
2019,02,26,02,16,-4.10
2019,02,26,02,17,-4.10
2019,02,26,02,18,-4.10
2019,02,26,02,19,-4.10
2019,02,26,02,20,-4.10
2019,02,26,02,21,-4.10
2019,02,26,02,22,-4.10
2019,02,26,02,23,-4.10
2019,02,26,02,24,-4.10
2019,02,26,02,25,-4.10
2019,02,26,02,26,-4.10
2019,02,26,02,27,-4.10
2019,02,26,02,28,-4.10
2019,02,26,02,29,-4.10
2019,02,26,02,30,-4.10
2019,02,26,02,31,-4.10
2019,02,26,02,32,-4.10
2019,02,26,02,33,-4.20
2019,02,26,02,34,-4.20
2019,02,26,02,35,-4.20
2019,02,26,02,36,-4.20
2019,02,26,02,37,-4.20
2019,02,26,02,38,-4.10
2019,02,26,02,39,-4.10
2019,02,26,02,40,-4.20
2019,02,26,02,41,-4.20
2019,02,26,02,42,-4.20
2019,02,26,02,43,-4.20
2019,02,26,02,44,-4.20
2019,02,26,02,45,-4.20
2019,02,26,02,46,-4.10
2019,02,26,02,47,-4.10
2019,02,26,02,48,-4.10
2019,02,26,02,49,-4.10
2019,02,26,02,50,-4.10
2019,02,26,02,51,-4.20
2019,02,26,02,52,-4.20
2019,02,26,02,53,-4.20
2019,02,26,02,54,-4.20
2019,02,26,02,55,-4.20
2019,02,26,02,56,-4.20
2019,02,26,02,57,-4.20
2019,02,26,02,58,-4.10
2019,02,26,02,59,-4.20
2019,02,26,03,00,-4.20
2019,02,26,03,01,-4.20
2019,02,26,03,02,-4.20
2019,02,26,03,03,-4.20
2019,02,26,03,04,-4.20
2019,02,26,03,05,-4.20
2019,02,26,03,06,-4.20
2019,02,26,03,07,-4.20
2019,02,26,03,08,-4.20
2019,02,26,03,09,-4.20
2019,02,26,03,10,-4.20
2019,02,26,03,11,-4.20
2019,02,26,03,12,-4.20
2019,02,26,03,13,-4.20
2019,02,26,03,14,-4.20
2019,02,26,03,15,-4.30
2019,02,26,03,16,-4.30
2019,02,26,03,17,-4.30
2019,02,26,03,18,-4.30
2019,02,26,03,19,-4.30
2019,02,26,03,20,-4.30
2019,02,26,03,21,-4.30
2019,02,26,03,22,-4.30
2019,02,26,03,23,-4.30
2019,02,26,03,24,-4.30
2019,02,26,03,25,-4.30
2019,02,26,03,26,-4.30
2019,02,26,03,27,-4.30
2019,02,26,03,28,-4.30
2019,02,26,03,29,-4.30
2019,02,26,03,30,-4.30
2019,02,26,03,31,-4.30
2019,02,26,03,32,-4.30
2019,02,26,03,33,-4.30
2019,02,26,03,34,-4.30
2019,02,26,03,35,-4.30
2019,02,26,03,36,-4.30
2019,02,26,03,37,-4.30
2019,02,26,03,38,-4.30
2019,02,26,03,39,-4.30
2019,02,26,03,40,-4.40
2019,02,26,03,41,-4.40
2019,02,26,03,42,-4.40
2019,02,26,03,43,-4.50
2019,02,26,03,44,-4.50
2019,02,26,03,45,-4.50
2019,02,26,03,46,-4.50
2019,02,26,03,47,-4.60
2019,02,26,03,48,-4.60
2019,02,26,03,49,-4.60
2019,02,26,03,50,-4.60
2019,02,26,03,51,-4.60
2019,02,26,03,52,-4.60
2019,02,26,03,53,-4.60
2019,02,26,03,54,-4.60
2019,02,26,03,55,-4.60
2019,02,26,03,56,-4.60
2019,02,26,03,57,-4.60
2019,02,26,03,58,-4.60
2019,02,26,03,59,-4.60
2019,02,26,04,00,-4.60
2019,02,26,04,01,-4.60
2019,02,26,04,02,-4.60
2019,02,26,04,03,-4.60
2019,02,26,04,04,-4.70
2019,02,26,04,05,-4.70
2019,02,26,04,06,-4.70
2019,02,26,04,07,-4.70
2019,02,26,04,08,-4.70
2019,02,26,04,09,-4.80
2019,02,26,04,10,-4.80
2019,02,26,04,11,-4.80
2019,02,26,04,12,-4.80
2019,02,26,04,13,-4.80
2019,02,26,04,14,-4.80
2019,02,26,04,15,-4.80
2019,02,26,04,16,-4.80
2019,02,26,04,17,-4.80
2019,02,26,04,18,-4.80
2019,02,26,04,19,-4.80
2019,02,26,04,20,-4.80
2019,02,26,04,21,-4.80
2019,02,26,04,22,-4.80
2019,02,26,04,23,-4.80
2019,02,26,04,24,-4.80
2019,02,26,04,25,-4.80
2019,02,26,04,26,-4.80
2019,02,26,04,27,-4.70
2019,02,26,04,28,-4.70
2019,02,26,04,29,-4.80
2019,02,26,04,30,-4.80
2019,02,26,04,31,-4.70
2019,02,26,04,32,-4.70
2019,02,26,04,33,-4.70
2019,02,26,04,34,-4.70
2019,02,26,04,35,-4.80
2019,02,26,04,36,-4.80
2019,02,26,04,37,-4.70
2019,02,26,04,38,-4.80
2019,02,26,04,39,-4.80
2019,02,26,04,40,-4.80
2019,02,26,04,41,-4.80
2019,02,26,04,42,-4.80
2019,02,26,04,43,-4.80
2019,02,26,04,44,-4.80
2019,02,26,04,45,-4.80
2019,02,26,04,46,-4.80
2019,02,26,04,47,-4.80
2019,02,26,04,48,-4.80
2019,02,26,04,49,-4.80
2019,02,26,04,50,-4.80
2019,02,26,04,51,-4.80
2019,02,26,04,52,-4.80
2019,02,26,04,53,-4.80
2019,02,26,04,54,-4.80
2019,02,26,04,55,-4.80
2019,02,26,04,56,-4.80
2019,02,26,04,57,-4.80
2019,02,26,04,58,-4.80
2019,02,26,04,59,-4.80
2019,02,26,05,00,-4.90
2019,02,26,05,01,-4.90
2019,02,26,05,02,-4.90
2019,02,26,05,03,-4.90
2019,02,26,05,04,-5.00
2019,02,26,05,05,-5.00
2019,02,26,05,06,-5.00
2019,02,26,05,07,-5.00
2019,02,26,05,08,-5.00
2019,02,26,05,09,-5.00
2019,02,26,05,10,-5.00
2019,02,26,05,11,-5.00
2019,02,26,05,12,-5.00
2019,02,26,05,13,-5.00
2019,02,26,05,14,-5.00
2019,02,26,05,15,-5.00
2019,02,26,05,16,-5.00
2019,02,26,05,17,-5.00
2019,02,26,05,18,-5.00
2019,02,26,05,19,-5.00
2019,02,26,05,20,-5.00
2019,02,26,05,21,-5.00
2019,02,26,05,22,-5.00
2019,02,26,05,23,-5.00
2019,02,26,05,24,-5.10
2019,02,26,05,25,-5.10
2019,02,26,05,26,-5.10
2019,02,26,05,27,-5.10
2019,02,26,05,28,-5.10
2019,02,26,05,29,-5.10
2019,02,26,05,30,-5.10
2019,02,26,05,31,-5.10
2019,02,26,05,32,-5.10
2019,02,26,05,33,-5.10
2019,02,26,05,34,-5.10
2019,02,26,05,35,-5.10
2019,02,26,05,36,-5.10
2019,02,26,05,37,-5.00
2019,02,26,05,38,-5.00
2019,02,26,05,39,-5.00
2019,02,26,05,40,-5.00
2019,02,26,05,41,-4.90
2019,02,26,05,42,-4.90
2019,02,26,05,43,-4.90
2019,02,26,05,44,-5.00
2019,02,26,05,45,-5.00
2019,02,26,05,46,-5.00
2019,02,26,05,47,-5.10
2019,02,26,05,48,-5.10
2019,02,26,05,49,-5.10
2019,02,26,05,50,-5.10
2019,02,26,05,51,-5.10
2019,02,26,05,52,-5.10
2019,02,26,05,53,-5.10
2019,02,26,05,54,-5.10
2019,02,26,05,55,-5.10
2019,02,26,05,56,-5.20
2019,02,26,05,57,-5.20
2019,02,26,05,58,-5.20
2019,02,26,05,59,-5.20
2019,02,26,06,00,-5.30
2019,02,26,06,01,-5.30
2019,02,26,06,02,-5.30
2019,02,26,06,03,-5.20
2019,02,26,06,04,-5.20
2019,02,26,06,05,-5.20
2019,02,26,06,06,-5.20
2019,02,26,06,07,-5.20
2019,02,26,06,08,-5.30
2019,02,26,06,09,-5.30
2019,02,26,06,10,-5.30
2019,02,26,06,11,-5.30
2019,02,26,06,12,-5.30
2019,02,26,06,13,-5.30
2019,02,26,06,14,-5.30
2019,02,26,06,15,-5.30
2019,02,26,06,16,-5.40
2019,02,26,06,17,-5.40
2019,02,26,06,18,-5.40
2019,02,26,06,19,-5.40
2019,02,26,06,20,-5.40
2019,02,26,06,21,-5.40
2019,02,26,06,22,-5.40
2019,02,26,06,23,-5.40
2019,02,26,06,24,-5.40
2019,02,26,06,25,-5.40
2019,02,26,06,26,-5.40
2019,02,26,06,27,-5.40
2019,02,26,06,28,-5.50
2019,02,26,06,29,-5.50
2019,02,26,06,30,-5.50
2019,02,26,06,31,-5.40
2019,02,26,06,32,-5.40
2019,02,26,06,33,-5.40
2019,02,26,06,34,-5.40
2019,02,26,06,35,-5.40
2019,02,26,06,36,-5.40
2019,02,26,06,37,-5.40
2019,02,26,06,38,-5.40
2019,02,26,06,39,-5.40
2019,02,26,06,40,-5.40
2019,02,26,06,41,-5.40
2019,02,26,06,42,-5.40
2019,02,26,06,43,-5.40
2019,02,26,06,44,-5.40
2019,02,26,06,45,-5.40
2019,02,26,06,46,-5.40
2019,02,26,06,47,-5.40
2019,02,26,06,48,-5.40
2019,02,26,06,49,-5.40
2019,02,26,06,50,-5.40
2019,02,26,06,51,-5.40
2019,02,26,06,52,-5.40
2019,02,26,06,53,-5.40
2019,02,26,06,54,-5.40
2019,02,26,06,55,-5.50
2019,02,26,06,56,-5.40
2019,02,26,06,57,-5.40
2019,02,26,06,58,-5.40
2019,02,26,06,59,-5.40
2019,02,26,07,00,-5.40
2019,02,26,07,01,-5.40
2019,02,26,07,02,-5.40
2019,02,26,07,03,-5.40
2019,02,26,07,04,-5.40
2019,02,26,07,05,-5.40
2019,02,26,07,06,-5.40
2019,02,26,07,07,-5.40
2019,02,26,07,08,-5.40
2019,02,26,07,09,-5.40
2019,02,26,07,10,-5.40
2019,02,26,07,11,-5.40
2019,02,26,07,12,-5.40
2019,02,26,07,13,-5.40
2019,02,26,07,14,-5.40
2019,02,26,07,15,-5.40
2019,02,26,07,16,-5.40
2019,02,26,07,17,-5.40
2019,02,26,07,18,-5.40
2019,02,26,07,19,-5.40
2019,02,26,07,20,-5.40
2019,02,26,07,21,-5.40
2019,02,26,07,22,-5.40
2019,02,26,07,23,-5.30
2019,02,26,07,24,-5.30
2019,02,26,07,25,-5.30
2019,02,26,07,26,-5.30
2019,02,26,07,27,-5.30
2019,02,26,07,28,-5.30
2019,02,26,07,29,-5.30
2019,02,26,07,30,-5.30
2019,02,26,07,31,-5.30
2019,02,26,07,32,-5.20
2019,02,26,07,33,-5.20
2019,02,26,07,34,-5.20
2019,02,26,07,35,-5.20
2019,02,26,07,36,-5.20
2019,02,26,07,37,-5.20
2019,02,26,07,38,-5.20
2019,02,26,07,39,-5.20
2019,02,26,07,40,-5.20
2019,02,26,07,41,-5.20
2019,02,26,07,42,-5.20
2019,02,26,07,43,-5.10
2019,02,26,07,44,-5.10
2019,02,26,07,45,-5.10
2019,02,26,07,46,-5.10
2019,02,26,07,47,-5.00
2019,02,26,07,48,-5.00
2019,02,26,07,49,-5.00
2019,02,26,07,50,-4.90
2019,02,26,07,51,-4.80
2019,02,26,07,52,-4.80
2019,02,26,07,53,-4.70
2019,02,26,07,54,-4.60
2019,02,26,07,55,-4.60
2019,02,26,07,56,-4.50
2019,02,26,07,57,-4.40
2019,02,26,07,58,-4.40
2019,02,26,07,59,-4.30
2019,02,26,08,00,-4.20
2019,02,26,08,01,-4.20
2019,02,26,08,02,-4.10
2019,02,26,08,03,-4.00
2019,02,26,08,04,-4.00
2019,02,26,08,05,-3.90
2019,02,26,08,06,-3.90
2019,02,26,08,07,-3.80
2019,02,26,08,08,-3.70
2019,02,26,08,09,-3.70
2019,02,26,08,10,-3.60
2019,02,26,08,11,-3.50
2019,02,26,08,12,-3.40
2019,02,26,08,13,-3.40
2019,02,26,08,14,-3.20
2019,02,26,08,15,-3.10
2019,02,26,08,16,-2.90
2019,02,26,08,17,-2.80
2019,02,26,08,18,-2.70
2019,02,26,08,19,-2.60
2019,02,26,08,20,-2.50
2019,02,26,08,21,-2.40
2019,02,26,08,22,-2.30
2019,02,26,08,23,-2.20
2019,02,26,08,24,-2.10
2019,02,26,08,25,-2.00
2019,02,26,08,26,-1.90
2019,02,26,08,27,-1.80
2019,02,26,08,28,-1.70
2019,02,26,08,29,-1.50
2019,02,26,08,30,-1.40
2019,02,26,08,31,-1.40
2019,02,26,08,32,-1.30
2019,02,26,08,33,-1.20
2019,02,26,08,34,-1.20
2019,02,26,08,35,-1.10
2019,02,26,08,36,-1.00
2019,02,26,08,37,-1.00
2019,02,26,08,38,-1.00
2019,02,26,08,39,-1.00
2019,02,26,08,40,-1.00
2019,02,26,08,41,-1.00
2019,02,26,08,42,-0.90
2019,02,26,08,43,-0.90
2019,02,26,08,44,-0.80
2019,02,26,08,45,-0.80
2019,02,26,08,46,-0.80
2019,02,26,08,47,-0.80
2019,02,26,08,48,-0.90
2019,02,26,08,49,-0.90
2019,02,26,08,50,-0.90
2019,02,26,08,51,-0.90
2019,02,26,08,52,-0.90
2019,02,26,08,53,-0.90
2019,02,26,08,54,-0.80
2019,02,26,08,55,-0.80
2019,02,26,08,56,-0.80
2019,02,26,08,57,-0.70
2019,02,26,08,58,-0.70
2019,02,26,08,59,-0.60
2019,02,26,09,00,-0.50
2019,02,26,09,01,-0.50
2019,02,26,09,02,-0.40
2019,02,26,09,03,-0.30
2019,02,26,09,04,-0.30
2019,02,26,09,05,-0.20
2019,02,26,09,06,-0.20
2019,02,26,09,07,-0.10
2019,02,26,09,08,-0.10
2019,02,26,09,09,-0.10
2019,02,26,09,10,0.00
2019,02,26,09,11,0.00
2019,02,26,09,12,0.00
2019,02,26,09,13,0.10
2019,02,26,09,14,0.10
2019,02,26,09,15,0.10
2019,02,26,09,16,0.20
2019,02,26,09,17,0.20
2019,02,26,09,18,0.20
2019,02,26,09,19,0.20
2019,02,26,09,20,0.30
2019,02,26,09,21,0.30
2019,02,26,09,22,0.40
2019,02,26,09,23,0.40
2019,02,26,09,24,0.40
2019,02,26,09,25,0.40
2019,02,26,09,26,0.50
2019,02,26,09,27,0.50
2019,02,26,09,28,0.60
2019,02,26,09,29,0.60
2019,02,26,09,30,0.60
2019,02,26,09,31,0.70
2019,02,26,09,32,0.70
2019,02,26,09,33,0.70
2019,02,26,09,34,0.70
2019,02,26,09,35,0.80
2019,02,26,09,36,0.80
2019,02,26,09,37,0.80
2019,02,26,09,38,0.80
2019,02,26,09,39,0.90
2019,02,26,09,40,0.90
2019,02,26,09,41,0.90
2019,02,26,09,42,0.90
2019,02,26,09,43,0.90
2019,02,26,09,44,0.90
2019,02,26,09,45,1.00
2019,02,26,09,46,1.00
2019,02,26,09,47,1.00
2019,02,26,09,48,1.00
2019,02,26,09,49,1.10
2019,02,26,09,50,1.10
2019,02,26,09,51,1.10
2019,02,26,09,52,1.10
2019,02,26,09,53,1.20
2019,02,26,09,54,1.20
2019,02,26,09,55,1.20
2019,02,26,09,56,1.20
2019,02,26,09,57,1.20
2019,02,26,09,58,1.20
2019,02,26,09,59,1.20
2019,02,26,10,00,1.20
2019,02,26,10,01,1.30
2019,02,26,10,02,1.30
2019,02,26,10,03,1.30
2019,02,26,10,04,1.30
2019,02,26,10,05,1.40
2019,02,26,10,06,1.40
2019,02,26,10,07,1.40
2019,02,26,10,08,1.50
2019,02,26,10,09,1.50
2019,02,26,10,10,1.50
2019,02,26,10,11,1.50
2019,02,26,10,12,1.60
2019,02,26,10,13,1.60
2019,02,26,10,14,1.60
2019,02,26,10,15,1.60
2019,02,26,10,16,1.60
2019,02,26,10,17,1.70
2019,02,26,10,18,1.70
2019,02,26,10,19,1.70
2019,02,26,10,20,1.70
2019,02,26,10,21,1.80
2019,02,26,10,22,1.80
2019,02,26,10,23,1.80
2019,02,26,10,24,1.80
2019,02,26,10,25,1.80
2019,02,26,10,26,1.90
2019,02,26,10,27,1.90
2019,02,26,10,28,1.90
2019,02,26,10,29,1.90
2019,02,26,10,30,1.90
2019,02,26,10,31,1.90
2019,02,26,10,32,1.90
2019,02,26,10,33,1.90
2019,02,26,10,34,1.90
2019,02,26,10,35,1.90
2019,02,26,10,36,1.90
2019,02,26,10,37,1.90
2019,02,26,10,38,1.90
2019,02,26,10,39,1.90
2019,02,26,10,40,1.90
2019,02,26,10,41,1.90
2019,02,26,10,42,1.90
2019,02,26,10,43,2.00
2019,02,26,10,44,2.00
2019,02,26,10,45,2.10
2019,02,26,10,46,2.10
2019,02,26,10,47,2.00
2019,02,26,10,48,2.00
2019,02,26,10,49,2.00
2019,02,26,10,50,2.00
2019,02,26,10,51,2.00
2019,02,26,10,52,2.10
2019,02,26,10,53,2.10
2019,02,26,10,54,2.10
2019,02,26,10,55,2.10
2019,02,26,10,56,2.20
2019,02,26,10,57,2.20
2019,02,26,10,58,2.20
2019,02,26,10,59,2.20
2019,02,26,11,00,2.20
2019,02,26,11,01,2.20
2019,02,26,11,02,2.20
2019,02,26,11,03,2.20
2019,02,26,11,04,2.20
2019,02,26,11,05,2.20
2019,02,26,11,06,2.20
2019,02,26,11,07,2.20
2019,02,26,11,08,2.30
2019,02,26,11,09,2.30
2019,02,26,11,10,2.40
2019,02,26,11,11,2.40
2019,02,26,11,12,2.50
2019,02,26,11,13,2.50
2019,02,26,11,14,2.50
2019,02,26,11,15,2.50
2019,02,26,11,16,2.50
2019,02,26,11,17,2.50
2019,02,26,11,18,2.60
2019,02,26,11,19,2.60
2019,02,26,11,20,2.60
2019,02,26,11,21,2.60
2019,02,26,11,22,2.60
2019,02,26,11,23,2.50
2019,02,26,11,24,2.60
2019,02,26,11,25,2.60
2019,02,26,11,26,2.60
2019,02,26,11,27,2.60
2019,02,26,11,28,2.60
2019,02,26,11,29,2.60
2019,02,26,11,30,2.70
2019,02,26,11,31,2.70
2019,02,26,11,32,2.80
2019,02,26,11,33,2.80
2019,02,26,11,34,2.80
2019,02,26,11,35,2.80
2019,02,26,11,36,2.80
2019,02,26,11,37,2.80
2019,02,26,11,38,2.80
2019,02,26,11,39,2.80
2019,02,26,11,40,2.70
2019,02,26,11,41,2.80
2019,02,26,11,42,2.80
2019,02,26,11,43,2.80
2019,02,26,11,44,2.80
2019,02,26,11,45,2.90
2019,02,26,11,46,3.00
2019,02,26,11,47,3.10
2019,02,26,11,48,3.10
2019,02,26,11,49,3.10
2019,02,26,11,50,3.10
2019,02,26,11,51,3.10
2019,02,26,11,52,3.10
2019,02,26,11,53,3.10
2019,02,26,11,54,3.20
2019,02,26,11,55,3.20
2019,02,26,11,56,3.20
2019,02,26,11,57,3.30
2019,02,26,11,58,3.30
2019,02,26,11,59,3.30
2019,02,26,12,00,3.30
2019,02,26,12,01,3.30
2019,02,26,12,02,3.30
2019,02,26,12,03,3.20
2019,02,26,12,04,3.20
2019,02,26,12,05,3.20
2019,02,26,12,06,3.10
2019,02,26,12,07,3.10
2019,02,26,12,08,3.10
2019,02,26,12,09,3.20
2019,02,26,12,10,3.20
2019,02,26,12,11,3.30
2019,02,26,12,12,3.30
2019,02,26,12,13,3.40
2019,02,26,12,14,3.40
2019,02,26,12,15,3.40
2019,02,26,12,16,3.40
2019,02,26,12,17,3.50
2019,02,26,12,18,3.60
2019,02,26,12,19,3.60
2019,02,26,12,20,3.70
2019,02,26,12,21,3.70
2019,02,26,12,22,3.80
2019,02,26,12,23,3.80
2019,02,26,12,24,4.00
2019,02,26,12,25,4.00
2019,02,26,12,26,4.10
2019,02,26,12,27,4.10
2019,02,26,12,28,4.20
2019,02,26,12,29,4.20
2019,02,26,12,30,4.20
2019,02,26,12,31,4.20
2019,02,26,12,32,4.20
2019,02,26,12,33,4.20
2019,02,26,12,34,4.10
2019,02,26,12,35,4.10
2019,02,26,12,36,4.10
2019,02,26,12,37,4.10
2019,02,26,12,38,4.20
2019,02,26,12,39,4.20
2019,02,26,12,40,4.20
2019,02,26,12,41,4.20
2019,02,26,12,42,4.30
2019,02,26,12,43,4.30
2019,02,26,12,44,4.30
2019,02,26,12,45,4.40
2019,02,26,12,46,4.40
2019,02,26,12,47,4.40
2019,02,26,12,48,4.40
2019,02,26,12,49,4.40
2019,02,26,12,50,4.50
2019,02,26,12,51,4.50
2019,02,26,12,52,4.40
2019,02,26,12,53,4.40
2019,02,26,12,54,4.30
2019,02,26,12,55,4.20
2019,02,26,12,56,4.10
2019,02,26,12,57,4.10
2019,02,26,12,58,4.10
2019,02,26,12,59,4.10
2019,02,26,13,00,4.00
2019,02,26,13,01,3.90
2019,02,26,13,02,3.90
2019,02,26,13,03,3.90
2019,02,26,13,04,3.90
2019,02,26,13,05,3.80
2019,02,26,13,06,3.80
2019,02,26,13,07,3.80
2019,02,26,13,08,3.80
2019,02,26,13,09,3.80
2019,02,26,13,10,3.80
2019,02,26,13,11,3.80
2019,02,26,13,12,3.80
2019,02,26,13,13,3.80
2019,02,26,13,14,3.80
2019,02,26,13,15,3.80
2019,02,26,13,16,3.80
2019,02,26,13,17,3.80
2019,02,26,13,18,3.90
2019,02,26,13,19,3.90
2019,02,26,13,20,3.90
2019,02,26,13,21,4.00
2019,02,26,13,22,4.10
2019,02,26,13,23,4.20
2019,02,26,13,24,4.30
2019,02,26,13,25,4.50
2019,02,26,13,26,4.60
2019,02,26,13,27,4.70
2019,02,26,13,28,4.80
2019,02,26,13,29,4.90
2019,02,26,13,30,5.00
2019,02,26,13,31,5.20
2019,02,26,13,32,5.20
2019,02,26,13,33,5.30
2019,02,26,13,34,5.30
2019,02,26,13,35,5.30
2019,02,26,13,36,5.30
2019,02,26,13,37,5.30
2019,02,26,13,38,5.30
2019,02,26,13,39,5.40
2019,02,26,13,40,5.40
2019,02,26,13,41,5.30
2019,02,26,13,42,5.30
2019,02,26,13,43,5.30
2019,02,26,13,44,5.30
2019,02,26,13,45,5.30
2019,02,26,13,46,5.30
2019,02,26,13,47,5.30
2019,02,26,13,48,5.30
2019,02,26,13,49,5.30
2019,02,26,13,50,5.30
2019,02,26,13,51,5.30
2019,02,26,13,52,5.40
2019,02,26,13,53,5.40
2019,02,26,13,54,5.50
2019,02,26,13,55,5.50
2019,02,26,13,56,5.60
2019,02,26,13,57,5.70
2019,02,26,13,58,5.70
2019,02,26,13,59,5.70
2019,02,26,14,00,5.70
2019,02,26,14,01,5.80
2019,02,26,14,02,5.80
2019,02,26,14,03,5.90
2019,02,26,14,04,6.00
2019,02,26,14,05,6.10
2019,02,26,14,06,6.20
2019,02,26,14,07,6.20
2019,02,26,14,08,6.10
2019,02,26,14,09,6.00
2019,02,26,14,10,6.00
2019,02,26,14,11,5.90
2019,02,26,14,12,5.80
2019,02,26,14,13,5.70
2019,02,26,14,14,5.70
2019,02,26,14,15,5.60
2019,02,26,14,16,5.50
2019,02,26,14,17,5.40
2019,02,26,14,18,5.30
2019,02,26,14,19,5.30
2019,02,26,14,20,5.30
2019,02,26,14,21,5.20
2019,02,26,14,22,5.20
2019,02,26,14,23,5.10
2019,02,26,14,24,5.10
2019,02,26,14,25,5.10
2019,02,26,14,26,5.10
2019,02,26,14,27,5.10
2019,02,26,14,28,5.10
2019,02,26,14,29,5.10
2019,02,26,14,30,5.10
2019,02,26,14,31,5.10
2019,02,26,14,32,5.10
2019,02,26,14,33,5.10
2019,02,26,14,34,5.10
2019,02,26,14,35,5.10
2019,02,26,14,36,5.00
2019,02,26,14,37,5.10
2019,02,26,14,38,5.10
2019,02,26,14,39,5.10
2019,02,26,14,40,5.10
2019,02,26,14,41,5.10
2019,02,26,14,42,5.20
2019,02,26,14,43,5.20
2019,02,26,14,44,5.30
2019,02,26,14,45,5.30
2019,02,26,14,46,5.40
2019,02,26,14,47,5.40
2019,02,26,14,48,5.50
2019,02,26,14,49,5.50
2019,02,26,14,50,5.60
2019,02,26,14,51,5.60
2019,02,26,14,52,5.50
2019,02,26,14,53,5.40
2019,02,26,14,54,5.30
2019,02,26,14,55,5.30
2019,02,26,14,56,5.20
2019,02,26,14,57,5.20
2019,02,26,14,58,5.10
2019,02,26,14,59,5.10
2019,02,26,15,00,5.20
2019,02,26,15,01,5.20
2019,02,26,15,02,5.20
2019,02,26,15,03,5.30
2019,02,26,15,04,5.40
2019,02,26,15,05,5.50
2019,02,26,15,06,5.50
2019,02,26,15,07,5.50
2019,02,26,15,08,5.40
2019,02,26,15,09,5.40
2019,02,26,15,10,5.30
2019,02,26,15,11,5.30
2019,02,26,15,12,5.20
2019,02,26,15,13,5.20
2019,02,26,15,14,5.20
2019,02,26,15,15,5.20
2019,02,26,15,16,5.20
2019,02,26,15,17,5.10
2019,02,26,15,18,5.10
2019,02,26,15,19,5.20
2019,02,26,15,20,5.20
2019,02,26,15,21,5.20
2019,02,26,15,22,5.30
2019,02,26,15,23,5.30
2019,02,26,15,24,5.40
2019,02,26,15,25,5.40
2019,02,26,15,26,5.40
2019,02,26,15,27,5.40
2019,02,26,15,28,5.40
2019,02,26,15,29,5.40
2019,02,26,15,30,5.40
2019,02,26,15,31,5.30
2019,02,26,15,32,5.20
2019,02,26,15,33,5.10
2019,02,26,15,34,5.10
2019,02,26,15,35,5.00
2019,02,26,15,36,5.00
2019,02,26,15,37,4.90
2019,02,26,15,38,4.90
2019,02,26,15,39,5.00
2019,02,26,15,40,5.00
2019,02,26,15,41,5.10
2019,02,26,15,42,5.10
2019,02,26,15,43,5.20
2019,02,26,15,44,5.20
2019,02,26,15,45,5.30
2019,02,26,15,46,5.40
2019,02,26,15,47,5.40
2019,02,26,15,48,5.50
2019,02,26,15,49,5.50
2019,02,26,15,50,5.50
2019,02,26,15,51,5.60
2019,02,26,15,52,5.60
2019,02,26,15,53,5.60
2019,02,26,15,54,5.60
2019,02,26,15,55,5.60
2019,02,26,15,56,5.50
2019,02,26,15,57,5.50
2019,02,26,15,58,5.60
2019,02,26,15,59,5.60
2019,02,26,16,00,5.60
2019,02,26,16,01,5.60
2019,02,26,16,02,5.60
2019,02,26,16,03,5.70
2019,02,26,16,04,5.70
2019,02,26,16,05,5.80
2019,02,26,16,06,5.90
2019,02,26,16,07,6.00
2019,02,26,16,08,6.00
2019,02,26,16,09,6.00
2019,02,26,16,10,6.10
2019,02,26,16,11,6.10
2019,02,26,16,12,6.20
2019,02,26,16,13,6.30
2019,02,26,16,14,6.40
2019,02,26,16,15,6.50
2019,02,26,16,16,6.60
2019,02,26,16,17,6.60
2019,02,26,16,18,6.70
2019,02,26,16,19,6.70
2019,02,26,16,20,6.70
2019,02,26,16,21,6.80
2019,02,26,16,22,6.80
2019,02,26,16,23,6.80
2019,02,26,16,24,6.70
2019,02,26,16,25,6.70
2019,02,26,16,26,6.60
2019,02,26,16,27,6.60
2019,02,26,16,28,6.50
2019,02,26,16,29,6.40
2019,02,26,16,30,6.30
2019,02,26,16,31,6.10
2019,02,26,16,32,6.00
2019,02,26,16,33,6.00
2019,02,26,16,34,6.00
2019,02,26,16,35,5.90
2019,02,26,16,36,5.80
2019,02,26,16,37,5.70
2019,02,26,16,38,5.60
2019,02,26,16,39,5.50
2019,02,26,16,40,5.40
2019,02,26,16,41,5.30
2019,02,26,16,42,5.30
2019,02,26,16,43,5.30
2019,02,26,16,44,5.30
2019,02,26,16,45,5.30
2019,02,26,16,46,5.30
2019,02,26,16,47,5.30
2019,02,26,16,48,5.30
2019,02,26,16,49,5.30
2019,02,26,16,50,5.40
2019,02,26,16,51,5.50
2019,02,26,16,52,5.60
2019,02,26,16,53,5.60
2019,02,26,16,54,5.50
2019,02,26,16,55,5.40
2019,02,26,16,56,5.40
2019,02,26,16,57,5.30
2019,02,26,16,58,5.30
2019,02,26,16,59,5.20
2019,02,26,17,00,5.20
2019,02,26,17,01,5.20
2019,02,26,17,02,5.10
2019,02,26,17,03,5.10
2019,02,26,17,04,5.10
2019,02,26,17,05,5.10
2019,02,26,17,06,5.20
2019,02,26,17,07,5.20
2019,02,26,17,08,5.20
2019,02,26,17,09,5.30
2019,02,26,17,10,5.30
2019,02,26,17,11,5.30
2019,02,26,17,12,5.30
2019,02,26,17,13,5.30
2019,02,26,17,14,5.30
2019,02,26,17,15,5.30
2019,02,26,17,16,5.20
2019,02,26,17,17,5.20
2019,02,26,17,18,5.20
2019,02,26,17,19,5.20
2019,02,26,17,20,5.20
2019,02,26,17,21,5.20
2019,02,26,17,22,5.20
2019,02,26,17,23,5.20
2019,02,26,17,24,5.10
2019,02,26,17,25,5.10
2019,02,26,17,26,5.10
2019,02,26,17,27,5.00
2019,02,26,17,28,4.90
2019,02,26,17,29,4.80
2019,02,26,17,30,4.80
2019,02,26,17,31,4.70
2019,02,26,17,32,4.70
2019,02,26,17,33,4.60
2019,02,26,17,34,4.60
2019,02,26,17,35,4.50
2019,02,26,17,36,4.50
2019,02,26,17,37,4.40
2019,02,26,17,38,4.40
2019,02,26,17,39,4.40
2019,02,26,17,40,4.30
2019,02,26,17,41,4.30